FW6085 Weather Reports


Display with metric or nautical units.
time (UTC)temp
F
wind
direction
speed
MPH
gust
MPH
rain 1hr
in
rain 24hr
in
rain mn
in
humidity
%
barometer
mb
20260509123049 47 137 2.0 5.0 0.05 0.26 0.11 92 1008.9
20260509121552 47 144 3.0 6.0 0.06 0.25 0.10 92 1009.1
20260509120052 47 136 2.0 4.0 0.07 0.24 0.09 92 1009.2
20260509114552 47 136 2.0 5.0 0.06 0.22 0.07 92 1009.4
20260509113047 46 137 3.0 6.0 0.06 0.21 0.06 91 1009.4
20260509111552 46 139 4.0 7.0 0.04 0.19 0.04 91 1009.4
20260509110052 46 141 2.0 8.0 0.02 0.17 0.02 90 1009.2
20260509104606 46 135 2.0 6.0 0.01 0.16 0.01 90 1009.2
20260509103103 46 122 3.0 8.0 0.00 0.15 0.00 89 1009.1
20260509101552 46 131 4.0 8.0 0.00 0.15 0.00 89 1008.9
20260509100049 47 134 3.0 7.0 0.00 0.15 0.00 88 1009.0
20260509094551 46 126 3.0 7.0 0.00 0.15 0.00 88 1008.9
20260509093050 46 134 2.0 7.0 0.00 0.15 0.00 88 1008.9
20260509091551 46 143 3.0 6.0 0.00 0.15 0.00 88 1009.0
20260509090056 46 0 2.0 7.0 0.00 0.15 0.00 87 1008.9
20260509084604 46 131 2.0 4.0 0.00 0.15 0.00 88 1009.2
20260509083054 43 0 0.0 3.0 0.00 0.15 0.00 87 1009.2
20260509081555 42 139 0.0 2.0 0.00 0.15 0.00 86 1009.0
20260509080138 43 0 0.0 0.0 0.00 0.15 0.00 85 1009.4
20260509074552 44 0 0.0 0.0 0.00 0.15 0.00 84 1009.5
20260509073056 46 0 0.0 4.0 0.00 0.15 0.00 83 1009.5
20260509071553 44 153 1.0 4.0 0.00 0.15 0.00 84 1009.7
20260509070053 43 0 0.0 0.0 0.00 0.15 0.00 82 1009.7
20260509064547 43 0 0.0 1.0 0.00 0.15 0.00 82 1009.7
20260509063107 43 0 0.0 2.0 0.00 0.15 0.00 80 1010.1
20260509061615 44 108 1.0 4.0 0.00 0.15 0.00 76 1010.0
20260509060058 45 0 0.0 0.0 0.00 0.15 0.00 72 1010.5
20260509054549 45 0 0.0 2.0 0.00 0.15 0.00 70 1010.5
20260509053052 45 110 1.0 3.0 0.00 0.15 0.00 68 1010.5
20260509051553 44 114 1.0 3.0 0.00 0.15 0.00 68 1010.5
20260509050054 44 117 1.0 3.0 0.00 0.15 0.00 69 1010.6
20260509044549 43 120 0.0 4.0 0.00 0.15 0.00 69 1010.8
20260509043053 43 121 3.0 6.0 0.00 0.15 0.00 71 1010.7
20260509041553 41 0 0.0 0.0 0.00 0.15 0.00 75 1010.6
20260509040052 42 0 0.0 0.0 0.00 0.15 0.00 73 1010.9
20260509034554 43 0 0.0 0.0 0.00 0.15 0.15 71 1011.0
20260509033050 43 0 0.0 0.0 0.00 0.15 0.15 69 1010.9
20260509031559 45 106 1.0 3.0 0.00 0.15 0.15 68 1011.0
20260509030054 45 105 2.0 4.0 0.00 0.15 0.15 68 1010.9
20260509024551 44 256 1.0 3.0 0.00 0.15 0.15 69 1011.2
20260509023050 45 0 0.0 2.0 0.00 0.15 0.15 68 1011.3
20260509021555 46 256 1.0 3.0 0.00 0.15 0.15 64 1011.3
20260509020057 47 0 0.0 1.0 0.00 0.15 0.15 65 1011.2
20260509014553 47 252 1.0 3.0 0.00 0.15 0.15 63 1011.2
20260509013055 45 0 0.0 0.0 0.00 0.15 0.15 70 1011.1
20260509011548 44 0 0.0 0.0 0.00 0.15 0.15 70 1010.9
20260509010056 45 0 0.0 0.0 0.00 0.15 0.15 70 1010.8
20260509004602 44 0 0.0 0.0 0.00 0.15 0.15 71 1010.6
20260509003051 45 0 0.0 0.0 0.00 0.15 0.15 69 1010.4
20260509001549 46 0 0.0 0.0 0.00 0.15 0.15 66 1010.3
20260509000051 48 0 0.0 0.0 0.00 0.15 0.15 62 1010.1
20260508234554 50 0 0.0 0.0 0.00 0.15 0.15 59 1010.1
20260508233053 50 0 0.0 0.0 0.00 0.15 0.15 55 1010.0
20260508231552 50 245 0.0 4.0 0.00 0.15 0.15 55 1009.9
20260508230051 51 247 2.0 4.0 0.00 0.15 0.15 54 1009.9
20260508224553 51 0 0.0 3.0 0.00 0.15 0.15 57 1010.0
20260508223051 51 256 0.0 5.0 0.00 0.15 0.15 54 1010.0
20260508221556 51 238 1.0 7.0 0.00 0.15 0.15 54 1009.9
20260508220054 51 209 1.0 7.0 0.00 0.15 0.15 54 1009.9
20260508214549 51 225 2.0 6.0 0.00 0.15 0.15 55 1010.1
20260508213058 52 213 2.0 8.0 0.00 0.15 0.15 56 1010.1
20260508211549 52 243 2.0 6.0 0.00 0.15 0.15 54 1010.1
20260508210055 51 237 0.0 7.0 0.00 0.15 0.15 57 1010.2
20260508204551 52 234 1.0 7.0 0.00 0.15 0.15 56 1010.3
20260508203059 52 231 0.0 8.0 0.00 0.15 0.15 55 1010.3
20260508201559 52 234 2.0 6.0 0.00 0.15 0.15 57 1010.5
20260508200050 52 249 2.0 6.0 0.00 0.15 0.15 57 1010.4
20260508194550 51 265 0.0 6.0 0.00 0.15 0.15 61 1010.7
20260508193055 51 229 2.0 7.0 0.00 0.15 0.15 60 1011.0
20260508191556 52 258 2.0 7.0 0.00 0.15 0.15 61 1011.0
20260508190054 51 146 1.0 5.0 0.00 0.15 0.15 65 1011.1
20260508184556 49 261 0.0 7.0 0.00 0.15 0.15 68 1011.3
20260508183056 48 243 2.0 6.0 0.00 0.15 0.15 69 1011.7
20260508181602 47 277 2.0 6.0 0.00 0.15 0.15 74 1011.7
20260508180056 47 249 1.0 5.0 0.00 0.15 0.15 72 1011.9
20260508174605 50 143 2.0 7.0 0.00 0.15 0.15 67 1011.8
20260508173054 50 149 2.0 6.0 0.00 0.15 0.15 73 1012.0
20260508171554 49 204 1.0 6.0 0.00 0.15 0.15 76 1011.9
20260508170055 47 183 1.0 7.0 0.00 0.15 0.15 79 1012.1
20260508164553 45 199 0.0 4.0 0.00 0.15 0.15 81 1012.3
20260508163054 44 0 0.0 3.0 0.00 0.15 0.15 81 1012.3
20260508161549 42 0 0.0 3.0 0.00 0.15 0.15 86 1012.4
20260508160051 41 258 0.0 4.0 0.00 0.15 0.15 88 1012.5
20260508154551 41 234 1.0 3.0 0.00 0.15 0.15 90 1012.4
20260508153054 40 264 1.0 3.0 0.01 0.15 0.15 91 1012.7
20260508151554 39 238 1.0 4.0 0.01 0.15 0.15 91 1012.6
20260508150055 39 0 0.0 3.0 0.01 0.15 0.15 91 1012.4
20260508144556 37 0 1.0 4.0 0.02 0.15 0.15 90 1012.2
20260508143051 37 0 0.0 2.0 0.03 0.14 0.14 90 1012.9
20260508141614 37 236 0.0 2.0 0.07 0.14 0.14 90 1012.6
20260508140054 37 0 0.0 4.0 0.11 0.14 0.14 90 1012.4
20260508134612 37 231 1.0 6.0 0.13 0.13 0.13 89 1012.6
20260508133101 37 0 1.0 5.0 0.11 0.11 0.11 88 1012.5
20260508131551 38 238 3.0 8.0 0.07 0.07 0.07 86 1012.4
20260508130057 40 0 0.0 4.0 0.02 0.02 0.02 84 1012.0
20260508124559 41 0 0.0 1.0 0.00 0.00 0.00 84 1011.7